When you browse on this site, cookies collect data to enhance your experience and personalize the content and advertising you see.
Visit our Privacy Policy to learn more. By continuing to use the site, you agree to this use of cookies and data.
  • In Czech Republic
  • List of Countries
  • For 7 days
  • Water Temperature
  • Satellite Maps
  • Weather Map
  • Weather Widgets
  • user-avatar
    Login

    Hourly Weather Pokrov

    Today, 17 February, Sunday

    Time Temperature Precipitation Wind Pressure Humidity
    00:00 -1°C° 0 mm 5 mps 738 mmHg 84%
    01:00 -1°C° 0 mm 5 mps 737 mmHg 85%
    02:00 -1°C° 0 mm 5 mps 736 mmHg 85%
    03:00 -1°C° 0 mm 5 mps 736 mmHg 86%
    04:00 -1°C° 0 mm 5 mps 735 mmHg 87%
    05:00 -2°C° 0 mm 6 mps 735 mmHg 88%
    06:00 -2°C° 0 mm 6 mps 735 mmHg 87%
    07:00 -1°C° 0 mm 5 mps 735 mmHg 85%
    08:00 -2°C° 0 mm 5 mps 735 mmHg 83%
    09:00 -3°C° 0 mm 6 mps 735 mmHg 82%
    10:00 -3°C° 0 mm 6 mps 735 mmHg 81%
    11:00 -3°C° 0 mm 7 mps 735 mmHg 80%
    12:00 -3°C° 0.1 mm 7 mps 735 mmHg 79%
    13:00 -3°C° 0.1 mm 7 mps 736 mmHg 78%
    14:00 -3°C° 0.1 mm 7 mps 736 mmHg 77%
    15:00 -3°C° 0.1 mm 7 mps 736 mmHg 77%
    16:00 -4°C° 0.1 mm 7 mps 737 mmHg 77%
    17:00 -4°C° 0.1 mm 7 mps 737 mmHg 78%
    18:00 -4°C° 0.1 mm 7 mps 738 mmHg 78%
    19:00 -4°C° 0.1 mm 7 mps 738 mmHg 78%
    20:00 -4°C° 0.1 mm 7 mps 739 mmHg 79%
    21:00 -6°C° 0.1 mm 7 mps 740 mmHg 78%
    22:00 -6°C° 0.1 mm 7 mps 741 mmHg 77%
    23:00 -5°C° 0.1 mm 6 mps 742 mmHg 76%

    Tomorrow, 18 February, Monday

    Time Temperature Precipitation Wind Pressure Humidity
    00:00 -6°C° 0 mm 6 mps 743 mmHg 78%
    01:00 -8°C° 0 mm 6 mps 744 mmHg 79%
    02:00 -8°C° 0 mm 5 mps 745 mmHg 81%
    03:00 -10°C° 0 mm 5 mps 746 mmHg 82%
    04:00 -10°C° 0 mm 5 mps 747 mmHg 84%
    05:00 -10°C° 0 mm 4 mps 747 mmHg 85%
    06:00 -10°C° 0 mm 4 mps 748 mmHg 86%
    07:00 -11°C° 0 mm 4 mps 749 mmHg 87%
    08:00 -11°C° 0 mm 4 mps 750 mmHg 88%
    09:00 -11°C° 0 mm 4 mps 751 mmHg 87%
    10:00 -9°C° 0 mm 3 mps 751 mmHg 86%
    11:00 -9°C° 0 mm 3 mps 752 mmHg 85%
    12:00 -8°C° 0 mm 3 mps 752 mmHg 84%
    13:00 -8°C° 0 mm 3 mps 752 mmHg 84%
    14:00 -7°C° 0 mm 2 mps 753 mmHg 83%
    15:00 -8°C° 0 mm 2 mps 753 mmHg 86%
    16:00 -8°C° 0 mm 1 mps 753 mmHg 89%
    17:00 -9°C° 0 mm 1 mps 753 mmHg 92%
    18:00 -9°C° 0 mm 1 mps 753 mmHg 91%
    19:00 -10°C° 0 mm 1 mps 753 mmHg 91%
    20:00 -10°C° 0 mm 1 mps 753 mmHg 91%
    21:00 -10°C° 0 mm 2 mps 753 mmHg 90%
    22:00 -10°C° 0 mm 2 mps 753 mmHg 88%
    23:00 -10°C° 0 mm 3 mps 752 mmHg 87%

    Day after tomorrow, 19 February, Tuesday

    Time Temperature Precipitation Wind Pressure Humidity
    00:00 -10°C° 0 mm 3 mps 752 mmHg 85%
    01:00 -10°C° 0 mm 4 mps 751 mmHg 84%
    02:00 -10°C° 0 mm 4 mps 751 mmHg 82%
    03:00 -9°C° 0 mm 4 mps 750 mmHg 81%
    04:00 -8°C° 0 mm 5 mps 749 mmHg 79%
    05:00 -7°C° 0 mm 5 mps 748 mmHg 78%
    06:00 -7°C° 0 mm 5 mps 748 mmHg 79%
    07:00 -7°C° 0 mm 5 mps 747 mmHg 79%
    08:00 -7°C° 0 mm 4 mps 747 mmHg 80%
    09:00 -4°C° 0 mm 4 mps 747 mmHg 81%
    10:00 -3°C° 0 mm 4 mps 746 mmHg 83%
    11:00 -2°C° 0 mm 4 mps 746 mmHg 84%
    12:00 -2°C° 0 mm 4 mps 746 mmHg 86%
    13:00 -1°C° 0 mm 4 mps 745 mmHg 87%
    14:00 -1°C° 0 mm 4 mps 745 mmHg 89%
    15:00 -1°C° 0 mm 4 mps 744 mmHg 88%
    16:00 -1°C° 0 mm 3 mps 744 mmHg 88%
    17:00 -1°C° 0 mm 3 mps 743 mmHg 88%
    18:00 -2°C° 0 mm 3 mps 743 mmHg 87%
    19:00 -3°C° 0 mm 4 mps 742 mmHg 87%
    20:00 -3°C° 0 mm 4 mps 742 mmHg 86%
    21:00 -3°C° 0 mm 4 mps 741 mmHg 86%
    22:00 -3°C° 0 mm 4 mps 741 mmHg 87%
    23:00 -4°C° 0 mm 4 mps 740 mmHg 87%

    20 February, Wednesday

    Time Temperature Precipitation Wind Pressure Humidity
    00:00 -3°C° 0 mm 4 mps 740 mmHg 87%
    01:00 -3°C° 0 mm 4 mps 739 mmHg 88%
    02:00 -3°C° 0 mm 4 mps 739 mmHg 88%
    03:00 -2°C° 0 mm 4 mps 738 mmHg 88%
    04:00 -2°C° 0 mm 4 mps 738 mmHg 88%
    05:00 -1°C° 0 mm 4 mps 737 mmHg 88%
    06:00 -1°C° 0.2 mm 4 mps 737 mmHg 89%
    07:00 -1°C° 0.2 mm 4 mps 736 mmHg 90%
    08:00 -1°C° 0.2 mm 4 mps 736 mmHg 91%
    09:00 -1°C° 0.2 mm 4 mps 736 mmHg 92%
    10:00 -1°C° 0.2 mm 4 mps 735 mmHg 94%
    11:00 +1°C° 0.2 mm 3 mps 735 mmHg 95%
    12:00 +1°C° 0.2 mm 3 mps 735 mmHg 96%
    13:00 +1°C° 0.2 mm 3 mps 735 mmHg 97%
    14:00 +1°C° 0.2 mm 3 mps 735 mmHg 97%
    15:00 0°C° 0.1 mm 3 mps 735 mmHg 96%
    16:00 0°C° 0.1 mm 3 mps 735 mmHg 95%
    17:00 0°C° 0.1 mm 3 mps 735 mmHg 93%
    18:00 0°C° 0.1 mm 3 mps 735 mmHg 93%
    19:00 0°C° 0.1 mm 3 mps 735 mmHg 93%
    20:00 0°C° 0.1 mm 3 mps 734 mmHg 93%
    21:00 0°C° 0.1 mm 3 mps 734 mmHg 93%
    22:00 -1°C° 0.1 mm 3 mps 734 mmHg 94%
    23:00 -1°C° 0.1 mm 3 mps 734 mmHg 94%

    21 February, Thursday

    Time Temperature Precipitation Wind Pressure Humidity
    00:00 -1°C° 0.2 mm 3 mps 734 mmHg 93%
    01:00 -1°C° 0.2 mm 3 mps 734 mmHg 92%
    02:00 -2°C° 0.2 mm 4 mps 734 mmHg 92%
    03:00 -3°C° 0.3 mm 4 mps 735 mmHg 90%
    04:00 -5°C° 0.3 mm 4 mps 735 mmHg 88%
    05:00 -8°C° 0.3 mm 5 mps 736 mmHg 86%
    06:00 -10°C° 0.1 mm 5 mps 736 mmHg 85%
    07:00 -10°C° 0.1 mm 5 mps 737 mmHg 83%
    08:00 -11°C° 0.1 mm 5 mps 738 mmHg 81%
    09:00 -11°C° 0 mm 5 mps 738 mmHg 81%
    10:00 -11°C° 0 mm 5 mps 739 mmHg 81%
    11:00 -10°C° 0 mm 5 mps 740 mmHg 81%
    12:00 -10°C° 0.1 mm 5 mps 740 mmHg 81%
    13:00 -10°C° 0.1 mm 6 mps 741 mmHg 81%
    14:00 -9°C° 0.1 mm 6 mps 742 mmHg 81%
    15:00 -10°C° 0.1 mm 5 mps 743 mmHg 81%
    16:00 -10°C° 0.1 mm 5 mps 744 mmHg 82%
    17:00 -11°C° 0.1 mm 5 mps 745 mmHg 83%
    18:00 -11°C° 0 mm 5 mps 745 mmHg 83%
    19:00 -12°C° 0 mm 5 mps 746 mmHg 83%
    20:00 -12°C° 0 mm 5 mps 747 mmHg 83%
    21:00 -13°C° 0.1 mm 5 mps 748 mmHg 83%
    22:00 -13°C° 0.1 mm 5 mps 748 mmHg 83%
    23:00 -13°C° 0.1 mm 5 mps 749 mmHg 84%

    22 February, Friday

    Time Temperature Precipitation Wind Pressure Humidity
    00:00 -14°C° 0 mm 5 mps 749 mmHg 84%
    01:00 -14°C° 0 mm 5 mps 750 mmHg 84%
    02:00 -15°C° 0 mm 5 mps 751 mmHg 84%
    03:00 -15°C° 0 mm 5 mps 751 mmHg 84%
    04:00 -17°C° 0 mm 5 mps 752 mmHg 83%
    05:00 -17°C° 0 mm 5 mps 753 mmHg 83%
    06:00 -17°C° 0 mm 5 mps 753 mmHg 81%
    07:00 -17°C° 0 mm 5 mps 754 mmHg 79%
    08:00 -17°C° 0 mm 5 mps 755 mmHg 77%
    09:00 -15°C° 0 mm 5 mps 756 mmHg 77%
    10:00 -13°C° 0 mm 5 mps 757 mmHg 77%
    11:00 -12°C° 0 mm 5 mps 757 mmHg 77%
    12:00 -11°C° 0 mm 5 mps 758 mmHg 75%
    13:00 -11°C° 0 mm 5 mps 758 mmHg 74%
    14:00 -10°C° 0 mm 5 mps 759 mmHg 73%
    15:00 -10°C° 0 mm 4 mps 760 mmHg 76%
    16:00 -11°C° 0 mm 4 mps 760 mmHg 80%
    17:00 -10°C° 0 mm 3 mps 761 mmHg 84%
    18:00 -12°C° 0 mm 3 mps 761 mmHg 85%
    19:00 -13°C° 0 mm 3 mps 762 mmHg 86%
    20:00 -13°C° 0 mm 3 mps 762 mmHg 87%
    21:00 -14°C° 0 mm 3 mps 763 mmHg 89%
    22:00 -15°C° 0 mm 3 mps 763 mmHg 90%
    23:00 -15°C° 0 mm 3 mps 764 mmHg 92%
    Show more